Location: Lecco
(45.8566°N, 9.3977°E)
Time: 04:08:59
(UTC+02:00)

Transit 4A - Pass Details

Date: 15 August 2020
Orbit: 863 x 982 km, 66.8° (Epoch: 23 September)

Event Time Altitude Azimuth Distance (km) Brightness Sun altitude
Rises 18:57:58 0° 322° (NW) 3,664 11.7 14.8°
Reaches altitude 10° 19:00:38 10° 315° (NW) 2,725 11.3 14.3°
Maximum altitude 19:06:33 41° 248° (WSW) 1,380 9.9 13.3°
Drops below altitude 10° 19:12:29 10° 180° (S) 2,725 10.3 12.3°
Sets 19:15:10 0° 173° (S) 3,664 10.9 11.8°
